TimePST,TemperatureF,Dew PointF,Humidity,Sea Level PressureIn,VisibilityMPH,Wind Direction,Wind SpeedMPH,Gust SpeedMPH,PrecipitationIn,Events,Conditions,WindDirDegrees,DateUTC
12:53 AM,51.1,50.0,96,30.19,8.0,WNW,3.5,-,N/A,,Scattered Clouds,290,2012-11-22 08:53:00
1:53 AM,50.0,48.0,93,30.19,8.0,NW,9.2,-,N/A,,Scattered Clouds,320,2012-11-22 09:53:00
2:53 AM,48.0,44.1,86,30.20,9.0,NW,6.9,-,N/A,,Clear,320,2012-11-22 10:53:00
3:53 AM,46.9,43.0,86,30.19,10.0,NW,9.2,-,N/A,,Clear,320,2012-11-22 11:53:00
4:53 AM,46.9,42.1,83,30.19,10.0,NNW,9.2,-,N/A,,Clear,330,2012-11-22 12:53:00
5:53 AM,45.0,42.1,90,30.19,10.0,NW,8.1,-,N/A,,Clear,320,2012-11-22 13:53:00
6:53 AM,44.1,39.9,85,30.22,10.0,NW,9.2,-,N/A,,Clear,320,2012-11-22 14:53:00
7:53 AM,46.9,42.1,83,30.23,10.0,NW,5.8,-,N/A,,Clear,320,2012-11-22 15:53:00
8:53 AM,51.1,43.0,74,30.25,10.0,NNW,8.1,-,N/A,,Clear,330,2012-11-22 16:53:00
9:53 AM,54.0,43.0,66,30.25,10.0,NNW,8.1,-,N/A,,Clear,330,2012-11-22 17:53:00
10:53 AM,57.0,44.1,62,30.24,10.0,NNW,11.5,-,N/A,,Clear,330,2012-11-22 18:53:00
11:53 AM,59.0,44.1,58,30.22,10.0,NNW,8.1,-,N/A,,Clear,330,2012-11-22 19:53:00
12:53 PM,60.1,45.0,57,30.20,10.0,NNW,4.6,-,N/A,,Clear,340,2012-11-22 20:53:00
1:53 PM,62.1,46.0,56,30.18,10.0,NW,3.5,-,N/A,,Clear,320,2012-11-22 21:53:00
2:53 PM,63.0,46.0,54,30.18,10.0,NW,5.8,-,N/A,,Clear,320,2012-11-22 22:53:00
3:53 PM,62.1,48.0,60,30.18,10.0,NNE,4.6,-,N/A,,Clear,30,2012-11-22 23:53:00
4:53 PM,57.9,48.0,70,30.18,10.0,ENE,4.6,-,N/A,,Clear,70,2012-11-23 00:53:00
5:53 PM,52.0,48.0,86,30.19,10.0,Calm,Calm,-,N/A,,Clear,0,2012-11-23 01:53:00
6:53 PM,53.1,46.9,80,30.20,10.0,Calm,Calm,-,N/A,,Clear,0,2012-11-23 02:53:00
7:53 PM,50.0,46.9,89,30.21,10.0,SSW,3.5,-,N/A,,Clear,200,2012-11-23 03:53:00
8:53 PM,48.0,45.0,89,30.22,10.0,SW,3.5,-,N/A,,Clear,220,2012-11-23 04:53:00
9:53 PM,45.0,43.0,93,30.22,10.0,Calm,Calm,-,N/A,,Clear,0,2012-11-23 05:53:00
10:53 PM,44.1,43.0,96,30.23,10.0,East,3.5,-,N/A,,Clear,90,2012-11-23 06:53:00
11:53 PM,44.1,43.0,96,30.24,10.0,NE,3.5,-,N/A,Fog,Shallow Fog,50,2012-11-23 07:53:00